Regional Weather Roundup
Issued by NWS

Home | Current Version | Previous Version | Graphics & Text | Print | Product List | Glossary On
Versions: 1 2 3 4 5 6 7 8 9 10 11 12 13 14 15 16 17 18 19 20 21 22 23 24 25 26 27 28 29 30 31 32 33 34 35 36 37 38 39 40 41 42 43 44 45 46 47 48 49 50
406
ASUS43 KLMK 120010
RWRKY
KENTUCKY REGIONAL WEATHER ROUNDUP
NATIONAL WEATHER SERVICE LOUISVILLE KY
700 PM EST THU FEB 11 2016

NOTE "FAIR" INDICATES FEW OR NO CLOUDS BELOW 12,000 FEET
WITH NO SIGNIFICANT WEATHER AND/OR OBSTRUCTIONS TO VISIBILITY.

KYZ001>023-026-027-061>063-070>075-120100-
WESTERN AND SOUTH CENTRAL KENTUCKY

CITY           SKY/WX    TMP DP  RH WIND       PRES   REMARKS
PADUCAH        CLOUDY    34  19  54 NE5       30.30R WCI  30
HENDERSON      PTCLDY    30  12  47 NE7       30.31S WCI  23
OWENSBORO      PTCLDY    31  11  43 E3        30.32R
HOPKINSVILLE   CLEAR     32  23  69 N8        30.27R WCI  25
BOWLING GREEN  MOCLDY    34  17  50 CALM      30.29R
GLASGOW        PTCLDY    31  18  57 NE5       30.28R WCI  27
$$

KYZ024-025-028>034-038-045-046-053-120100-
NORTH CENTRAL KENTUCKY

CITY           SKY/WX    TMP DP  RH WIND       PRES   REMARKS
LOUISVILLE/SDF MOCLDY    30   8  39 NE8       30.30R WCI  22
LOUISVILLE/LOU CLEAR     28   9  44 NE6       30.31R WCI  22
FORT KNOX      MOCLDY    28   9  43 N3        30.28R
$$

KYZ035>037-039>044-047>052-055>060-089>105-120100-
NORTHEAST KENTUCKY

CITY           SKY/WX    TMP DP  RH WIND       PRES   REMARKS
LEXINGTON      CLEAR     26  11  52 CALM      30.28S
COVINGTON      PTCLDY    22   6  50 CALM      30.29R
FRANKFORT      CLEAR     24   9  52 W3        30.29R
$$

KYZ054-064>069-076>088-106>120-120100-
SOUTHEAST KENTUCKY

CITY           SKY/WX    TMP DP  RH WIND       PRES   REMARKS
JACKSON        CLEAR     25   7  46 N6        30.24R WCI  18
LONDON         CLEAR     28   4  35 NW5       30.25R WCI  23
SOMERSET       CLEAR     28  14  54 E3        30.28S
MIDDLESBORO    CLEAR     29  19  65 CALM      30.25R
MONTICELLO     CLEAR     27  21  78 N13       30.28R WCI  16
$$





USA.gov is the U.S. government's official web portal to all federal, state and local government web resources and services.